TimeAST,TemperatureF,Dew PointF,Humidity,Sea Level PressureIn,VisibilityMPH,Wind Direction,Wind SpeedMPH,Gust SpeedMPH,PrecipitationIn,Events,Conditions,WindDirDegrees,DateUTC
12:00 AM,32.0,28.4,87,29.86,12.0,SE,10.4,-,N/A,,Overcast,140,2013-01-10 04:00:00
12:12 AM,32.0,30.2,93,29.85,12.0,SE,11.5,-,N/A,Snow,Light Snow,140,2013-01-10 04:12:00
1:00 AM,32.0,30.2,93,29.80,10.0,SE,11.5,-,N/A,Rain-Snow,Light Rain,140,2013-01-10 05:00:00
1:14 AM,32.0,32.0,100,29.79,3.0,SE,9.2,-,N/A,Snow,Light Snow,140,2013-01-10 05:14:00
1:19 AM,32.0,32.0,100,29.78,1.5,SE,9.2,-,N/A,Snow,Light Snow,140,2013-01-10 05:19:00
1:44 AM,32.0,32.0,100,29.76,2.5,SE,10.4,-,N/A,Snow,Light Snow,140,2013-01-10 05:44:00
2:00 AM,33,33,97,29.75,3,SSE,11.5,,,Snow,Light Snow,150,2013-01-10 06:00:00
2:00 AM,33.8,32.0,93,29.75,3.0,SSE,12.7,-,N/A,Snow,Light Snow,150,2013-01-10 06:00:00
2:35 AM,33.8,32.0,93,29.72,3.0,SSE,13.8,-,N/A,Snow,Light Snow,150,2013-01-10 06:35:00
3:00 AM,33.8,32.0,93,29.69,3.0,SSE,10.4,-,N/A,Snow,Light Snow,160,2013-01-10 07:00:00
3:31 AM,33.8,33.8,100,29.66,8.0,SSE,13.8,-,N/A,Rain-Snow,Light Rain,150,2013-01-10 07:31:00
4:00 AM,33.8,33.8,100,29.64,6.0,South,9.2,-,N/A,Rain-Snow,Light Rain,180,2013-01-10 08:00:00
4:13 AM,33.8,33.8,100,29.63,6.0,South,11.5,-,N/A,,Overcast,170,2013-01-10 08:13:00
4:42 AM,33.8,33.8,100,29.61,3.0,South,9.2,-,N/A,Rain,Light Rain,190,2013-01-10 08:42:00
5:00 AM,33.8,33.8,100,29.61,6.0,SW,5.8,-,N/A,Rain,Light Rain,230,2013-01-10 09:00:00
5:28 AM,33.8,33.8,100,29.61,8.0,WSW,6.9,-,N/A,,Overcast,240,2013-01-10 09:28:00
6:00 AM,33.8,33.8,100,29.60,10.0,West,9.2,-,N/A,Snow,Light Snow Showers,260,2013-01-10 10:00:00
7:00 AM,33.8,32.0,93,29.61,10.0,West,15.0,23.0,N/A,Snow,Light Snow Showers,270,2013-01-10 11:00:00
7:50 AM,33.8,32.0,93,29.63,12.0,WNW,12.7,19.6,N/A,,Light Drizzle,290,2013-01-10 11:50:00
8:00 AM,34,32,88,29.64,12,WNW,12.7,,,Rain,Light Drizzle,290,2013-01-10 12:00:00
8:00 AM,33.8,32.0,93,29.64,12.0,WNW,15.0,20.7,N/A,,Light Drizzle,290,2013-01-10 12:00:00
8:45 AM,33.8,32.0,93,29.66,8.0,WNW,16.1,31.1,N/A,Snow,Light Snow Showers,300,2013-01-10 12:45:00
8:57 AM,32.0,30.2,93,29.66,2.0,WNW,17.3,29.9,N/A,Snow,Light Snow Showers,300,2013-01-10 12:57:00
9:00 AM,32.0,30.2,93,29.67,2.0,WNW,17.3,29.9,N/A,Snow,Light Snow Showers,300,2013-01-10 13:00:00
9:18 AM,32.0,30.2,93,29.67,1.5,NW,17.3,24.2,N/A,Snow,Light Snow Showers,310,2013-01-10 13:18:00
9:28 AM,32.0,30.2,93,29.68,3.0,WNW,18.4,32.2,N/A,Snow,Light Snow Showers,300,2013-01-10 13:28:00
10:00 AM,32.0,30.2,93,29.70,4.0,NW,19.6,32.2,N/A,Snow,Light Snow Showers,310,2013-01-10 14:00:00
11:00 AM,30.2,28.4,93,29.73,10.0,NW,19.6,33.4,N/A,Snow,Light Snow Showers,310,2013-01-10 15:00:00
11:33 AM,30.2,26.6,86,29.73,15.0,NW,23.0,36.8,N/A,Snow,Light Snow Showers,310,2013-01-10 15:33:00
12:00 PM,30.2,26.6,86,29.75,15.0,NW,24.2,36.8,N/A,Snow,Low Drifting Snow,320,2013-01-10 16:00:00
1:00 PM,32.0,26.6,80,29.77,15.0,NW,25.3,41.4,N/A,,Overcast,320,2013-01-10 17:00:00
2:00 PM,32,26,72,29.81,15,NW,21.9,,,,Partly Cloudy,320,2013-01-10 18:00:00
2:00 PM,32.0,26.6,80,29.81,15.0,NW,23.0,34.5,N/A,,Overcast,320,2013-01-10 18:00:00
3:00 PM,32.0,26.6,80,29.86,15.0,NW,19.6,33.4,N/A,,Overcast,320,2013-01-10 19:00:00
4:00 PM,32.0,26.6,80,29.90,15.0,NW,17.3,33.4,N/A,,Overcast,320,2013-01-10 20:00:00
5:00 PM,30.2,26.6,86,29.94,15.0,NNW,12.7,25.3,N/A,,Overcast,330,2013-01-10 21:00:00
6:00 PM,30.2,26.6,86,29.98,15.0,NNW,15.0,24.2,N/A,,Overcast,340,2013-01-10 22:00:00
7:00 PM,30.2,26.6,86,30.02,15.0,NNW,12.7,21.9,N/A,,Overcast,340,2013-01-10 23:00:00
7:39 PM,30.2,26.6,86,30.05,15.0,NNW,17.3,25.3,N/A,Snow,Light Snow Showers,330,2013-01-10 23:39:00
8:00 PM,31,27,77,30.07,15,NNW,15.0,,,Snow,Light Snow Showers,330,2013-01-11 00:00:00
8:00 PM,30.2,26.6,86,30.07,15.0,NNW,17.3,27.6,N/A,Snow,Light Snow Showers,330,2013-01-11 00:00:00
9:00 PM,30.2,26.6,86,30.09,15.0,NW,12.7,21.9,N/A,Snow,Light Snow Showers,320,2013-01-11 01:00:00
9:27 PM,32.0,26.6,80,30.11,10.0,NNW,16.1,28.8,N/A,Snow,Light Snow Showers,330,2013-01-11 01:27:00
10:00 PM,32.0,24.8,75,30.13,12.0,NNW,15.0,28.8,N/A,Snow,Light Snow Showers,340,2013-01-11 02:00:00
11:00 PM,30.2,21.2,69,30.16,12.0,NNW,25.3,42.6,N/A,Snow,Light Snow Showers,340,2013-01-11 03:00:00